sat.trackr.live / text

‹ back to catalog

STARLINK-37189

NORAD 68603 · 2026-073B

PAYLOAD ACTIVE UNKNOWN

§ Identity

Operator
Country
US
Launch date
2026-04-07
Launch site
AFWTR
Launch vehicle
Mass (kg)
RCS (m²)

Purposes: comms

External: N2YO · Heavens-Above · Gunter

§ Orbital elements

Epoch: 2026-05-25T04:00:03.998880Z

Period
92.95 min
Inclination
97.2851°
Eccentricity
0.0001253
Mean motion
15.49206396 rev/d
Perigee alt
418.2 km
Apogee alt
419.9 km
Semi-major
6,797.2 km
B*
-3.7443e-4
RAAN
344.5986°
Arg perigee
83.5337°
Mean anomaly
86.4143°
Rev number
588

§ Raw data

STARLINK-371891 68603U 26073B   26145.16671295 -.00020414  00000+0 -37443-3 0  99922 68603  97.2851 344.5986 0001253  83.5337  86.4143 15.49206396  5888

JSON: /api/v1/satellites/68603 · /tle

For live sub-satellite position, see the globe view (requires WebGL).

§ Visibility from observer

Set your observer location to see the next 7 days of passes ≥ 10°. The values pass through the URL so the page stays shareable.

No JS? Fill the form by hand. The geolocation button needs JavaScript.